Location: Cormont
(50.5693°N, 1.7416°E)
Time: 18:54:27
(UTC+00:00)

STARLINK-71 - Pass Details

Date: 21 October 2019
Orbit: 548 x 551 km, 53.0° (Epoch: 20 November)

Event Time Altitude Azimuth Distance (km) Brightness Sun altitude
Rises 19:25:49 0° 287° (WNW) 2,722 8.5 -25.4°
Reaches altitude 10° 19:28:03 10° 289° (WNW) 1,828 7.3 -25.7°
Enters shadow 19:31:16 52° 300° (WNW) 689 4.3 -26.2°
